GSAT0220 (GALILEO 24)

Last updated on Nov. 17, 2019, 4:19 a.m. UTC

1 43567U 18060D   19320.14157531 -.00000057  00000-0  00000+0 0  9994
2 43567  56.6699  46.9253 0004446 256.7814 103.1999  1.70476032  8165
UTC
Height (km)
Latitude
Longitude
Inclination
Orbital Period
UTC large
Height (km)
Speed (km/s)
/
Latitude / Longitude
Inclination (degrees)
Orbital Period (minutes)
Azimuth
Elevation
Range (km)
Doppler Factor
iOS Compass Heading
iOS Angle

Next 30 passes for location: Hong Kong

Rise time Rise Azimuth (degrees) Set time Set Azimuth (degrees) Duration Max altitude (degrees)

No matching passes for this satellites